Fort Smith, AR

3:19 AM CST on February 12, 2016 (GMT -0600)
Fort Smith Regional

Weather History for KFSM - August, 2013

Change the Weather History Date:

Monday, August 12, 2013

  Actual Average Record
Temperature  
Mean Temperature 84 °F 83 °F  
Max Temperature 93 °F 94 °F 107 °F (1934)
Min Temperature 75 °F 72 °F 53 °F (1967)
Cooling Degree Days 19 18  
Month to date cooling degree days 239 216  
Year to date cooling degree days 1500 1381  
Since 1 June cooling degree days 1226 1137  
Growing Degree Days 33 (Base 50)    
Moisture  
Dew Point 73 °F    
Average Humidity 75    
Maximum Humidity 94    
Minimum Humidity 56    
Precipitation  
Precipitation 0.01 in 0.09 in 2.06 in (1957)
Month to date precipitation 2.01 1.07  
Year to date precipitation 33.04 27.84  
Sea Level Pressure  
Sea Level Pressure 29.99 in    
Wind  
Wind Speed 5 mph (East)    
Max Wind Speed 14 mph    
Max Gust Speed 17 mph    
Visibility 9 miles    
Events Rain , Thunderstorm    
T = Trace of Precipitation, MM = Missing Value Source: NWS Daily Summary

Daily Weather History Graph

Daily Weather History Graph

Search for Another Location

Airport or City:

Trip Planner

Search our weather history database for the weather conditions in past years. The results will help you decide how hot, cold, wet, or windy it might be!

Date:

Astronomy

Aug. 12, 2013 Rise Set
Actual Time 6:34 AM CDT 8:09 PM CDT
Civil Twilight 6:07 AM CDT 8:36 PM CDT
Nautical Twilight 5:35 AM CDT 9:09 PM CDT
Astronomical Twilight 5:00 AM CDT 9:43 PM CDT
Moon 12:11 PM CDT 11:18 PM CDT
Length of Visible Light 14h 28m
Length of Day
13h 34m
Waxing Crescent, 31% of the Moon is Illuminated
Aug 12
Waxing Crescent
Aug 14
First Quarter
Aug 20
Full
Aug 28
Last Quarter
Sep 5
New

Hourly Weather History & Observations

Time (CDT) Temp. Heat Index Dew Point Humidity Pressure Visibility Wind Dir Wind Speed Gust Speed Precip Events Conditions
12:53 AM 78.1 °F - 73.0 °F 84% 30.01 in 10.0 mi East 4.6 mph - N/A   Mostly Cloudy
1:53 AM 78.1 °F - 73.0 °F 84% 30.00 in 10.0 mi ESE 3.5 mph - N/A   Partly Cloudy
2:53 AM 77.0 °F - 73.9 °F 90% 30.00 in 10.0 mi East 3.5 mph - N/A   Clear
3:53 AM 75.9 °F - 73.9 °F 94% 29.99 in 8.0 mi ENE 5.8 mph - N/A   Clear
4:53 AM 75.9 °F - 73.9 °F 94% 29.98 in 8.0 mi ENE 3.5 mph - N/A   Clear
5:53 AM 75.9 °F - 73.9 °F 94% 29.99 in 7.0 mi Calm Calm - N/A   Clear
6:53 AM 75.9 °F - 73.9 °F 94% 29.99 in 5.0 mi ENE 3.5 mph - N/A   Clear
7:53 AM 77.0 °F - 73.9 °F 90% 30.00 in 6.0 mi ENE 5.8 mph - N/A   Clear
8:00 AM 77.0 °F - 73.4 °F 89% 30.02 in 6.0 mi East 5.8 mph - N/A   Mostly Cloudy
8:53 AM 80.1 °F 85.1 °F 75.0 °F 85% 30.01 in 8.0 mi Calm Calm - N/A   Clear
9:53 AM 84.0 °F 91.2 °F 73.9 °F 72% 30.01 in 10.0 mi Calm Calm - N/A   Clear
10:53 AM 88.0 °F 95.6 °F 73.0 °F 61% 30.01 in 10.0 mi West 6.9 mph - N/A   Clear
11:53 AM 89.1 °F 97.0 °F 73.0 °F 59% 30.01 in 10.0 mi WSW 9.2 mph - N/A   Partly Cloudy
12:53 PM 91.9 °F 103.2 °F 75.0 °F 58% 29.99 in 10.0 mi West 9.2 mph - N/A   Clear
1:53 PM 91.0 °F 100.4 °F 73.9 °F 57% 29.96 in 10.0 mi West 10.4 mph - N/A Thunderstorm Mostly Cloudy
2:53 PM 84.0 °F 89.0 °F 71.1 °F 65% 30.00 in 10.0 mi South 5.8 mph - N/A Thunderstorm Overcast
3:29 PM 82.4 °F 87.2 °F 71.6 °F 70% 30.03 in 10.0 mi North 8.1 mph - N/A Thunderstorm Overcast
3:53 PM 80.1 °F 84.2 °F 73.0 °F 79% 30.01 in 10.0 mi East 5.8 mph - 0.00 in Rain , Thunderstorm Light Rain
4:53 PM 81.0 °F 85.2 °F 72.0 °F 74% 29.94 in 10.0 mi SE 5.8 mph - 0.01 in   Clear
5:53 PM 79.0 °F - 73.0 °F 82% 29.96 in 10.0 mi South 9.2 mph - N/A   Clear
6:53 PM 80.1 °F 84.2 °F 73.0 °F 79% 29.94 in 10.0 mi Calm Calm - N/A   Clear
7:53 PM 78.1 °F - 72.0 °F 81% 29.96 in 10.0 mi East 3.5 mph - N/A   Clear
8:53 PM 77.0 °F - 73.0 °F 88% 29.96 in 10.0 mi East 4.6 mph - N/A   Clear
9:53 PM 75.9 °F - 73.0 °F 91% 29.99 in 10.0 mi East 4.6 mph - N/A   Mostly Cloudy
10:53 PM 75.0 °F - 73.0 °F 94% 29.97 in 10.0 mi ENE 3.5 mph - N/A   Clear
11:53 PM 75.0 °F - 73.0 °F 94% 29.98 in 10.0 mi ESE 3.5 mph - N/A   Partly Cloudy